星链-31412 (STARLINK-31412 )

导读

STARLINK-31412是美国SpaceX星链星座旗下卫星,于2024年4月5日发射升空。作为星链互联网星座的组成部分,它承担着为全球提供低延迟、高速宽带互联网服务的任务,尤其覆盖偏远地区与网络基础设施薄弱区域。该卫星延续星链批量部署模式,依托近地轨道部署,助力星座组网扩容,推动全球互联覆盖能力进一步提升。

Basic Information
目录编号:
59410
目录名称:
STARLINK-31412
国际标识:
2024-064N
轨道中心:
EARTH
卫星名称:
星链-31412
卫星全名:
星链-31412 (STARLINK-31412 )
卫星状态:
在轨 (已飞行882 天)
发射日期:
2024-04-05 UTC
国别 :
美国 (US)
星等 :
--
Orbit Information
数据来源 国际轨道数据 AOE轨道数据
星历时间 2026-09-04T09:08:07+0800
10小时前
查看轨道信息
2026-08-30T20:00:00+0800
5天前
查看轨道信息
半长轴 6861.167km 6861.175km
偏心率 0.0000788 0.0001255
轨道倾角 43.000° 43.006°
近地点辐角 288.502° 259.746°
升交点赤经 128.871° 154.556°
平近点角 71.575° 264.114°
近地点 482.489km 482.176km
远地点 483.571km 483.9km
周期 94.266分钟 94.267分钟
每日圈数 15.275866 15.27584
Detailed Information
固有亮度:
5
最大亮度:
0.3
卫星平台:
Starlink v2.0 mini
覆盖范围:
全球
运营商:
太空探索技术公司
运营商所在国:
美国
制造商(研发单位):
太空探索技术公司
制造商所在国:
美国
使用方式:
暂无
Satellite Introduction
星链(Starlink)计划是由太空探索技术公司(SpaceX)提出的一个巨型低轨卫星互联网星座项目,计划在2019年至2024年间在太空搭建由约1.2万颗卫星组成的“星链”网络,其中1584颗将部署在地球上空550千米处的近地轨道,并从2020年开始工作。该卫星仍在工作。
2D Orbit Map
3D Orbit Map
Orbit Altitude Analysis Chart
Orbit Inclination Analysis Chart
Orbit Comprehensive Analysis Chart
View Comprehensive Chart
Conjunction Data List
Event ID Objects TCA Miss Dist (km) Collision Risk Probability Collision Risk Index (CRI) Action
CDM_260904-224805-941006-680921
2026-09-04T
22:48:36+0000
0.075 km
近距离
1.153228E-3 极高风险 0.96
CDM_260905-140404-377005-941021
AO-95 (43770)
2026-09-05T
14:04:09+0000
1.812 km
极远距离
3.660082E-6 低风险 0.46
CDM_260904-211405-941006-680921
2026-09-04T
21:14:27+0000
1.899 km
极远距离
1.679808E-6 低风险 0.4
CDM_260905-002205-941006-680921
2026-09-05T
00:22:46+0000
1.981 km
极远距离
1.513252E-6 低风险 0.39
CDM_260904-023905-321005-941021
2026-09-04T
02:39:43+0000
2.808 km
极远距离
1.431657E-6 低风险 0.38